Location: Asbacherhof
(48.8543°N, 10.7903°E)
Time: 23:41:32
(UTC+00:00)

Meteor 1-28 Rocket - Pass Details

Date: 26 May 2022
Orbit: 499 x 518 km, 97.4° (Epoch: 26 June)

Event Time Altitude Azimuth Distance (km) Brightness Sun altitude
Exits shadow 02:03:53 13° 197° (SSW) 1,543 5.0 -10.5°
Maximum altitude 02:06:52 36° 262° (W) 819 3.8 -10.1°
Drops below altitude 10° 02:10:21 10° 331° (NNW) 1,737 6.1 -9.8°
Sets 02:12:34 0° 340° (NNW) 2,625 7.2 -9.5°
